Regional Weather Roundup
Issued by NWS Newport/Morehead, NC

Current Version | Previous Version | Graphics & Text | Print | Product List | Glossary Off
Versions: 1 2 3 4 5 6 7 8 9 10 11 12 13 14 15 16 17 18 19 20 21 22 23 24 25 26 27 28 29 30 31 32 33 34 35 36 37 38 39 40 41 42 43 44 45 46 47 48 49 50

000
ASUS42 KMHX 201913
RWRMHX
WEATHER ROUNDUP FOR EASTERN NORTH CAROLINA
NATIONAL WEATHER SERVICE NEWPORT/MOREHEAD CITY NC
200 PM EST MON FEB 20 2017

NOTE: "FAIR" INDICATES FEW OR NO CLOUDS BELOW 12,000 FEET
WITH NO SIGNIFICANT WEATHER AND/OR OBSTRUCTIONS TO VISIBILITY

NCZ015>017-031-032-045>047-102-103-202000-
NORTH COAST

CITY           SKY/WX    TMP DP  RH WIND       PRES   REMARKS
EDENTON        SUNNY     66  43  44 SE9       30.18S
ELIZABETH CITY SUNNY     64  39  39 NE8       30.18F
KITTY HAWK     NOT AVBL
MANTEO         SUNNY     57  41  55 N12       30.19F

$$

NCZ045>047-081-094-103-104-202000-
CENTRAL COAST

CITY           SKY/WX    TMP DP  RH WIND       PRES   REMARKS
FRISCO         SUNNY     60  46  59 N8G20     30.17F

$$

NCZ095-097-098-100-101-202000-
SOUTHERN COAST

CITY           SKY/WX    TMP DP  RH WIND       PRES   REMARKS
BEAUFORT       SUNNY     68  42  38 NE14G22   30.16F
CEDAR ISLAND   NOT AVBL
JACKSONVILLE   SUNNY     73  39  29 N8        30.15S
PINEY ISLAND   CLEAR    N/A N/A N/A NE10      30.17F
WILMINGTON     SUNNY     70  45  40 SE8       30.15S


$$

NCZ011>013-027>030-043-044-078>080-089-090>093-098-202000-
COASTAL PLAIN

CITY           SKY/WX    TMP DP  RH WIND       PRES   REMARKS
AHOSKIE          N/A     69  33  26 NE8       30.17F
CLINTON        SUNNY     72  42  34 NE6       30.17F
ELIZABETHTOWN  SUNNY     74  44  33 CALM      30.16F
GOLDSBORO      SUNNY     72  31  22 N5        30.15F
GREENVILLE     SUNNY     70  32  24 NE7       30.18F
HAVELOCK       SUNNY     69  45  41 NE10      30.17F
KENANSVILLE    NOT AVBL
KINSTON        SUNNY     72  30  21 NE8       30.17F
NEW BERN       SUNNY     70  41  34 NE8       30.16F
RICHLANDS      SUNNY     72  38  29 NE8       30.16F
ROCKY MOUNT    SUNNY     70  37  29 VRB7      30.17F
WASHINGTON     SUNNY     69  35  28 NE6       30.17F
WHITEVILLE     SUNNY     73  45  36 NE6       30.15F

$$

AMZ130-135-150-152-154-156-158-170-250-252-270-ANZ085-086-088-633-658-670-202000-
MARINE OBSERVATIONS

STATION/POSITION TIME  TEMP    WIND        PRES    WAVE   SWELL
                       AIR SEA DIR/SP/G            HT/PER HT/PER
                 (UTC) (F)     (DEG/KT/KT) (MB)    (FT/S) (FT/S)
CHESAPEAKE LIGHT NOT AVBL
64 E VA BEACH    1850   51 51   20/ 14/ 16 1021.6    3/ 4
DUCK             1848   50 49  360/  8/  9 1021.8
2 E DUCK         1900      49                N/A     2/ 3
OREGON INLET     1842   53 51  360/ 12/ 16 1021.9
13E OREGON INLT  NOT AVBL
HATTERAS CG      1848   55 57   10/ 14/ 18 1021.5
DIAMOND BUOY     1850   59 63   20/ 17/ 21 1021.0    3/ 5   2/ 7
CAPE LOOKOUT     1900   58      40/ 15/ 16 1021.2
BEAUFORT LAB     1848   65 53   40/ 10/ 14 1020.4
30 SE NEW RVR IN 1808   61      60/ 16/ 19 1021.0
30 SE NEW RVR IN 1843      63                N/A     3/ 5
27 SE WRIGHTSVLE 1808   62 62   70/ 16/ 21 1020.3
5 SE WRIGHTSVLE  1808   58 57   60/  6/ 10 1021.3
225 S CAPE HAT   1850   70 71   30/ 16/ 17 1018.2    6/ 6   2/11
41 SE CHARLESTON 1850   65 69   20/  8/ 10 1020.5    2/ 4   2/ 4

$$



USA.gov is the U.S. government's official web portal to all federal, state and local government web resources and services.